TimeEST,TemperatureF,Dew PointF,Humidity,Sea Level PressureIn,VisibilityMPH,Wind Direction,Wind SpeedMPH,Gust SpeedMPH,PrecipitationIn,Events,Conditions,WindDirDegrees,DateUTC
12:53 AM,32.0,19.9,61,29.53,10.0,WSW,15.0,-,N/A,,Overcast,250,2014-01-20 05:53:00
1:53 AM,32.0,21.0,64,29.52,10.0,WSW,17.3,27.6,N/A,,Overcast,250,2014-01-20 06:53:00
2:53 AM,32.0,21.0,64,29.52,10.0,WSW,18.4,27.6,N/A,,Overcast,250,2014-01-20 07:53:00
3:53 AM,32.0,21.9,66,29.52,10.0,WSW,15.0,-,N/A,,Overcast,250,2014-01-20 08:53:00
4:20 AM,33.1,21.9,64,29.49,10.0,WSW,17.3,-,N/A,,Overcast,250,2014-01-20 09:20:00
4:53 AM,33.1,23.0,66,29.52,10.0,WSW,11.5,-,N/A,,Overcast,240,2014-01-20 09:53:00
5:53 AM,33.1,23.0,66,29.52,10.0,SW,9.2,-,N/A,,Overcast,230,2014-01-20 10:53:00
6:53 AM,32.0,25.0,75,29.54,8.0,WSW,8.1,-,0.00,Snow,Light Snow,240,2014-01-20 11:53:00
7:53 AM,32.0,27.0,82,29.55,6.0,SW,10.4,-,0.00,,Haze,220,2014-01-20 12:53:00
8:16 AM,32.0,28.0,85,29.52,3.0,SW,8.1,-,0.00,Rain,Light Freezing Rain,220,2014-01-20 13:16:00
8:24 AM,32.0,28.0,85,29.53,2.5,WSW,8.1,-,0.00,Snow,Light Snow,240,2014-01-20 13:24:00
8:53 AM,32.0,28.9,88,29.57,2.0,WSW,6.9,-,0.00,Snow,Light Snow,240,2014-01-20 13:53:00
9:12 AM,32.0,28.9,88,29.54,1.8,NNW,4.6,-,0.01,Snow,Light Snow,330,2014-01-20 14:12:00
9:42 AM,30.0,26.1,85,29.55,1.8,NW,8.1,-,0.02,Snow,Light Snow,310,2014-01-20 14:42:00
9:53 AM,30.0,25.0,82,29.58,1.8,WNW,11.5,17.3,0.02,Snow,Light Snow,300,2014-01-20 14:53:00
10:17 AM,30.0,26.1,85,29.56,1.0,WNW,9.2,-,0.00,Snow,Light Snow,300,2014-01-20 15:17:00
10:25 AM,30.0,26.1,85,29.57,0.8,NNW,10.4,17.3,0.00,Snow,Light Snow,330,2014-01-20 15:25:00
10:41 AM,27.0,23.0,85,29.57,1.0,NNW,9.2,-,0.00,Snow,Light Snow,330,2014-01-20 15:41:00
10:53 AM,27.0,21.9,81,29.62,1.8,NW,13.8,-,0.00,Snow,Light Snow,320,2014-01-20 15:53:00
10:57 AM,27.0,21.0,78,29.58,2.5,NNW,11.5,-,0.00,Snow,Light Snow,330,2014-01-20 15:57:00
11:06 AM,27.0,21.9,81,29.58,4.0,Variable,5.8,-,0.00,Snow,Light Snow,0,2014-01-20 16:06:00
11:19 AM,27.0,21.0,78,29.58,5.0,NNW,6.9,-,0.00,Snow,Light Snow,340,2014-01-20 16:19:00
11:30 AM,26.1,19.9,78,29.59,4.0,NW,9.2,-,0.00,Snow,Light Snow,320,2014-01-20 16:30:00
11:39 AM,27.0,21.0,78,29.59,5.0,NNW,6.9,-,0.00,Snow,Light Snow,330,2014-01-20 16:39:00
11:53 AM,26.1,19.9,78,29.63,6.0,NW,10.4,-,0.00,Snow,Light Snow,310,2014-01-20 16:53:00
12:15 PM,25.0,19.9,81,29.61,2.0,NW,10.4,-,0.00,Snow,Light Snow,310,2014-01-20 17:15:00
12:24 PM,26.1,19.9,78,29.60,1.8,NW,6.9,-,0.00,Snow,Light Snow,310,2014-01-20 17:24:00
12:49 PM,26.6,19.4,74,29.60,2.0,NW,12.7,-,0.00,Snow,Light Snow,310,2014-01-20 17:49:00
12:53 PM,25.0,19.9,81,29.64,2.0,NW,16.1,21.9,0.00,Snow,Light Snow,320,2014-01-20 17:53:00
1:05 PM,24.1,18.0,77,29.62,3.0,NW,15.0,25.3,0.00,Snow,Light Snow,320,2014-01-20 18:05:00
1:29 PM,24.1,18.0,77,29.64,2.0,NW,10.4,21.9,0.00,Snow,Light Snow,310,2014-01-20 18:29:00
1:42 PM,23.0,17.1,78,29.65,1.2,NW,13.8,23.0,0.00,Snow,Light Snow,310,2014-01-20 18:42:00
1:53 PM,21.9,17.1,82,29.69,1.0,WNW,11.5,23.0,0.00,Snow,Light Snow,300,2014-01-20 18:53:00
2:01 PM,21.9,16.0,78,29.66,1.0,NW,12.7,25.3,0.00,Snow,Light Snow,310,2014-01-20 19:01:00
2:31 PM,21.0,14.0,74,29.68,2.5,NW,12.7,24.2,0.00,Snow,Light Snow,310,2014-01-20 19:31:00
2:41 PM,21.0,15.1,78,29.69,3.0,WNW,6.9,-,0.00,Snow,Light Snow,300,2014-01-20 19:41:00
2:44 PM,21.0,15.1,78,29.69,2.5,WNW,9.2,-,0.00,Snow,Light Snow,300,2014-01-20 19:44:00
2:47 PM,21.2,15.8,80,29.69,2.0,WNW,10.4,17.3,0.00,Snow,Light Snow,300,2014-01-20 19:47:00
2:53 PM,19.9,12.9,74,29.74,3.0,NW,13.8,19.6,0.00,Snow,Light Snow,310,2014-01-20 19:53:00
3:09 PM,19.9,14.0,78,29.72,2.0,NW,10.4,-,0.00,Snow,Light Snow,320,2014-01-20 20:09:00
3:17 PM,19.9,12.9,74,29.72,2.5,WNW,12.7,19.6,0.00,Snow,Light Snow,300,2014-01-20 20:17:00
3:24 PM,19.0,12.0,74,29.73,5.0,NW,12.7,21.9,0.00,Snow,Light Snow,310,2014-01-20 20:24:00
3:53 PM,18.0,9.0,68,29.80,8.0,NW,10.4,20.7,0.00,Snow,Light Snow,310,2014-01-20 20:53:00
4:03 PM,18.0,9.0,68,29.77,7.0,NW,10.4,24.2,0.00,Snow,Light Snow,310,2014-01-20 21:03:00
4:14 PM,17.1,9.0,71,29.78,6.0,NW,11.5,17.3,0.00,Snow,Light Snow,310,2014-01-20 21:14:00
4:53 PM,17.1,8.1,68,29.86,10.0,WNW,11.5,18.4,0.00,,Overcast,300,2014-01-20 21:53:00
5:53 PM,15.1,6.1,68,29.89,10.0,NW,10.4,-,0.00,,Overcast,310,2014-01-20 22:53:00
6:53 PM,15.1,6.1,68,29.93,9.0,WNW,5.8,-,0.00,Snow,Light Snow,300,2014-01-20 23:53:00
7:39 PM,14.0,5.0,67,29.90,10.0,WNW,6.9,-,0.00,,Overcast,290,2014-01-21 00:39:00
7:53 PM,14.0,3.9,64,29.95,10.0,NW,6.9,-,0.00,,Overcast,310,2014-01-21 00:53:00
8:17 PM,14.0,6.1,71,29.91,4.0,NW,9.2,-,0.00,Snow,Light Snow,310,2014-01-21 01:17:00
8:34 PM,12.9,5.0,71,29.92,6.0,NW,9.2,-,0.00,Snow,Light Snow,310,2014-01-21 01:34:00
8:53 PM,12.9,5.0,71,29.98,9.0,Variable,5.8,-,0.00,,Overcast,0,2014-01-21 01:53:00
9:53 PM,12.0,3.9,70,30.00,10.0,NW,9.2,-,N/A,,Overcast,310,2014-01-21 02:53:00
10:53 PM,10.9,3.0,70,30.01,10.0,NW,10.4,-,N/A,,Overcast,310,2014-01-21 03:53:00
11:53 PM,10.9,1.9,67,30.02,10.0,NW,10.4,-,N/A,,Overcast,320,2014-01-21 04:53:00